TimeCDT,TemperatureF,Dew PointF,Humidity,Sea Level PressureIn,VisibilityMPH,Wind Direction,Wind SpeedMPH,Gust SpeedMPH,PrecipitationIn,Events,Conditions,WindDirDegrees,DateUTC
12:15 AM,74.8,70.7,87,29.97,7.0,South,8.1,-,N/A,Rain,Rain,190,2013-06-25 05:15:00
12:35 AM,74.7,70.3,86,29.97,7.0,South,6.9,-,N/A,Rain,Heavy Rain,190,2013-06-25 05:35:00
12:55 AM,74.3,70.0,86,29.97,7.0,South,6.9,-,N/A,Rain,Heavy Rain,180,2013-06-25 05:55:00
1:15 AM,73.8,69.8,87,29.97,7.0,South,6.9,-,N/A,Rain,Rain,180,2013-06-25 06:15:00
1:35 AM,73.4,69.6,88,29.96,7.0,South,5.8,-,N/A,Rain,Rain,180,2013-06-25 06:35:00
1:55 AM,73.0,69.3,88,29.96,7.0,South,5.8,-,N/A,Rain,Rain,180,2013-06-25 06:55:00
2:15 AM,72.9,68.9,87,29.96,7.0,South,6.9,-,N/A,Rain,Rain,180,2013-06-25 07:15:00
2:35 AM,72.7,68.9,88,29.96,7.0,South,6.9,-,N/A,Rain,Rain,190,2013-06-25 07:35:00
2:55 AM,72.5,68.9,88,29.96,7.0,SSW,8.1,-,N/A,Rain,Rain,200,2013-06-25 07:55:00
3:15 AM,72.5,68.9,88,29.96,7.0,South,8.1,-,N/A,Rain,Heavy Rain,190,2013-06-25 08:15:00
3:35 AM,72.3,68.9,89,29.96,7.0,SSW,8.1,-,N/A,Rain,Heavy Rain,200,2013-06-25 08:35:00
3:55 AM,72.5,69.1,89,29.97,7.0,SSW,8.1,-,N/A,Rain,Rain,200,2013-06-25 08:55:00
4:15 AM,72.5,69.3,90,29.97,7.0,SSW,8.1,-,N/A,Rain,Rain,200,2013-06-25 09:15:00
4:35 AM,72.1,69.1,90,29.97,7.0,South,6.9,-,N/A,Rain,Rain,190,2013-06-25 09:35:00
4:55 AM,72.3,69.4,91,29.96,7.0,South,8.1,-,N/A,Rain,Rain,170,2013-06-25 09:55:00
5:15 AM,72.5,69.8,91,29.96,7.0,South,9.2,-,N/A,Rain,Rain,180,2013-06-25 10:15:00
5:35 AM,72.5,69.8,91,29.95,5.0,South,8.1,-,N/A,Rain,Rain,180,2013-06-25 10:35:00
5:55 AM,73.0,70.0,90,29.95,5.0,South,6.9,-,N/A,Rain,Rain,180,2013-06-25 10:55:00
6:15 AM,73.4,70.5,91,29.95,5.0,South,6.9,-,N/A,Rain,Rain,180,2013-06-25 11:15:00
6:35 AM,74.8,70.9,87,29.94,5.0,SSW,9.2,-,N/A,Rain,Rain,200,2013-06-25 11:35:00
6:55 AM,76.1,71.1,84,29.94,5.0,SSW,11.5,16.1,N/A,Rain,Rain,200,2013-06-25 11:55:00
7:15 AM,76.1,71.6,86,29.94,7.0,SSW,9.2,-,N/A,Rain,Rain,200,2013-06-25 12:15:00
7:35 AM,77.0,71.6,83,29.94,5.0,SSW,11.5,-,N/A,Rain,Rain,200,2013-06-25 12:35:00
7:55 AM,79.0,72.5,80,29.94,7.0,SSW,10.4,17.3,0.01,Rain,Rain,200,2013-06-25 12:55:00
8:15 AM,80.8,73.0,77,29.94,7.0,SSW,10.4,-,N/A,Rain,Rain,210,2013-06-25 13:15:00
8:35 AM,82.2,72.7,73,29.95,5.0,SSW,12.7,18.4,N/A,Rain,Rain,210,2013-06-25 13:35:00
8:55 AM,81.9,72.0,72,29.96,7.0,SW,10.4,-,N/A,,Clear,220,2013-06-25 13:55:00
9:15 AM,80.6,72.0,75,29.97,7.0,SW,10.4,-,N/A,,Clear,220,2013-06-25 14:15:00
9:35 AM,81.1,73.0,76,29.99,7.0,SW,6.9,-,N/A,,Clear,220,2013-06-25 14:35:00
9:55 AM,81.5,72.9,75,29.99,7.0,SW,9.2,-,N/A,,Clear,220,2013-06-25 14:55:00
10:15 AM,81.9,73.4,75,29.99,7.0,SW,8.1,-,N/A,,Clear,220,2013-06-25 15:15:00
10:35 AM,84.2,74.3,72,29.98,7.0,SW,11.5,17.3,N/A,,Clear,220,2013-06-25 15:35:00
10:55 AM,84.6,73.0,68,29.96,7.0,SW,13.8,19.6,N/A,,Clear,220,2013-06-25 15:55:00
11:15 AM,86.4,75.0,69,29.95,7.0,SW,15.0,21.9,N/A,,Clear,220,2013-06-25 16:15:00
11:35 AM,87.6,74.1,64,29.95,5.0,SW,11.5,23.0,N/A,,Haze,220,2013-06-25 16:35:00
11:55 AM,89.2,74.3,61,29.95,5.0,SW,13.8,17.3,N/A,,Haze,220,2013-06-25 16:55:00
12:15 PM,89.6,74.3,61,29.94,5.0,WSW,15.0,-,N/A,,Haze,240,2013-06-25 17:15:00
12:35 PM,90.5,74.3,59,29.93,5.0,WSW,16.1,25.3,N/A,,Haze,240,2013-06-25 17:35:00
12:55 PM,90.9,73.6,57,29.93,5.0,SSW,17.3,20.7,N/A,,Haze,210,2013-06-25 17:55:00
1:35 PM,91.9,73.6,55,29.91,5.0,WSW,15.0,18.4,N/A,,Haze,240,2013-06-25 18:35:00
1:55 PM,92.3,73.0,53,29.91,5.0,SW,13.8,21.9,N/A,,Haze,220,2013-06-25 18:55:00
2:15 PM,92.8,72.7,52,29.90,5.0,SW,11.5,18.4,N/A,,Haze,220,2013-06-25 19:15:00
2:35 PM,93.2,73.0,52,29.89,5.0,SW,12.7,18.4,N/A,,Haze,220,2013-06-25 19:35:00
2:55 PM,93.2,72.3,50,29.88,5.0,SW,13.8,17.3,N/A,,Haze,220,2013-06-25 19:55:00
3:15 PM,91.8,71.2,51,29.87,5.0,SW,12.7,-,N/A,,Haze,220,2013-06-25 20:15:00
3:35 PM,90.0,71.8,55,29.87,5.0,SW,13.8,-,N/A,,Haze,220,2013-06-25 20:35:00
3:55 PM,89.2,72.9,58,29.87,5.0,SW,11.5,-,N/A,,Haze,220,2013-06-25 20:55:00
4:15 PM,90.9,72.7,55,29.87,5.0,SW,12.7,-,N/A,,Haze,220,2013-06-25 21:15:00
4:35 PM,88.9,72.3,58,29.86,5.0,SSW,10.4,-,N/A,,Haze,210,2013-06-25 21:35:00
4:55 PM,87.1,71.8,60,29.86,5.0,SSW,9.2,-,N/A,,Haze,210,2013-06-25 21:55:00
5:15 PM,85.8,72.0,63,29.85,5.0,SSW,9.2,-,N/A,,Haze,210,2013-06-25 22:15:00
5:35 PM,84.9,71.8,65,29.85,5.0,SSW,8.1,16.1,N/A,,Haze,210,2013-06-25 22:35:00
5:55 PM,84.2,71.8,66,29.85,5.0,SW,6.9,-,N/A,,Haze,230,2013-06-25 22:55:00
6:15 PM,78.4,64.4,62,29.88,4.0,WNW,13.8,34.5,N/A,,Haze,290,2013-06-25 23:15:00
6:35 PM,74.7,65.8,74,29.87,10.0,WNW,6.9,-,N/A,Rain,Rain,290,2013-06-25 23:35:00
6:55 PM,72.5,66.4,81,29.88,10.0,WNW,6.9,-,N/A,Rain,Light Rain,290,2013-06-25 23:55:00
7:15 PM,70.2,64.8,83,29.93,1.2,WSW,28.8,46.0,0.57,Rain,Heavy Rain,240,2013-06-26 00:15:00
7:35 PM,68.2,65.1,90,29.91,7.0,South,4.6,-,0.99,Rain,Rain,190,2013-06-26 00:35:00
7:55 PM,68.9,66.6,92,29.88,7.0,SSE,4.6,-,1.02,Rain,Rain,160,2013-06-26 00:55:00
8:15 PM,69.3,66.7,92,29.86,5.0,South,9.2,-,0.06,Rain,Rain,170,2013-06-26 01:15:00
8:35 PM,69.3,67.1,93,29.85,10.0,SSE,9.2,-,0.07,Rain,Light Rain,150,2013-06-26 01:35:00
8:55 PM,69.6,66.9,91,29.85,10.0,South,8.1,-,0.07,Rain,Light Rain,180,2013-06-26 01:55:00
9:15 PM,69.4,67.1,92,29.85,10.0,South,5.8,-,N/A,,Clear,180,2013-06-26 02:15:00
9:35 PM,69.1,66.6,92,29.87,10.0,SW,10.4,-,N/A,,Clear,220,2013-06-26 02:35:00
9:55 PM,68.9,66.7,93,29.87,10.0,South,10.4,-,N/A,,Clear,190,2013-06-26 02:55:00
10:15 PM,68.9,66.7,93,29.86,10.0,SSW,6.9,-,N/A,,Clear,200,2013-06-26 03:15:00
10:35 PM,68.9,66.7,93,29.87,10.0,SSW,8.1,-,N/A,,Clear,210,2013-06-26 03:35:00
10:55 PM,69.3,67.1,93,29.88,10.0,SW,6.9,-,N/A,,Scattered Clouds,230,2013-06-26 03:55:00
11:15 PM,69.4,67.3,93,29.88,10.0,SW,5.8,-,N/A,,Scattered Clouds,220,2013-06-26 04:15:00
11:35 PM,69.4,67.3,93,29.88,10.0,SSW,4.6,-,N/A,,Unknown,200,2013-06-26 04:35:00
11:55 PM,69.8,67.5,92,29.87,10.0,SW,9.2,-,N/A,Rain,Light Rain,220,2013-06-26 04:55:00